Location: Newark
(35.2161°N, 26.1013°E)
Time: 21:08:29
(UTC+00:00)

BEESAT 2 - Pass Details

Date: 21 January 2020
Orbit: 493 x 534 km, 64.9° (Epoch: 23 February)

Event Time Altitude Azimuth Distance (km) Brightness Sun altitude
Exits shadow 03:42:16 - 0° (N) 2,409 ? -20.2°
Reaches altitude 10° 03:45:40 10° 38° (NE) 1,788 ? -19.5°
Maximum altitude 03:46:12 10° 46° (NE) 1,773 ? -19.4°
Drops below altitude 10° 03:46:45 10° 54° (NE) 1,786 ? -19.3°
Sets 03:51:03 0° 99° (E) 2,664 ? -18.4°
